Simultaneous Nadir Overpasses (SNOs) Predictions

Prediction of SNOs between AQUA and GOES-15 Satellite Orbit:

Table of predicted SNOs for the next 14.0 days since TLE Epoch: 10/31/2020
Index Date Time (AQUA) AQUA Lat,Lon GOES-15 Lat,Lon Distance(km) Time Diff (sec)
1 10/31/2020 21:51:56 0.97,-124.25 0.13,-128.08 435.98 80
2 11/01/2020 10:13:10 0.19,-129.40 -0.11,-128.07 151.91 80
3 11/03/2020 10:00:59 -0.45,-126.45 -0.11,-128.01 177.60 80
4 11/03/2020 22:22:22 -0.69,-131.63 0.10,-127.99 413.70 80
5 11/05/2020 22:10:11 -0.04,-128.68 0.10,-127.93 85.24 80
6 11/07/2020 21:57:59 0.56,-125.72 0.11,-127.85 242.60 80
7 11/08/2020 10:19:15 0.54,-130.88 -0.09,-127.83 346.21 80
8 11/10/2020 10:07:03 -0.06,-127.91 -0.10,-127.75 18.78 80
9 11/12/2020 09:54:51 -0.67,-124.95 -0.10,-127.67 308.37 80
10 11/12/2020 22:16:14 -0.46,-130.14 0.08,-127.65 282.97 80
